N1898L KASE-KPDX

Flight info

Callsign N1898L
Flight time N/A
Altitude 43000
Route LINDZ1 LINDZ DCT RIL DCT KUOCB DCT ORYDA DCT YUMIE DCT JOTBA HHOOD6
Aircraft E55P/M-SBDFGHJ2RWY/LB2

Departure

Time 2026-04-25 01:00
Airport Aspen-Pitkin County Airport (Sardy Field) (KASE)

Arrival

Time N/A
Airport Portland International Airport (KPDX)
Time Latitude Longitude Altitude Speed Heading
2026-04-25 00:39 39.21969 -106.86530 7806 ft 0 kts 101°
2026-04-25 00:53 39.21969 -106.86529 7806 ft 0 kts 102°
2026-04-25 00:54 39.21972 -106.86548 7806 ft 2 kts 101°
2026-04-25 00:54 39.21975 -106.86567 7805 ft 2 kts 101°
2026-04-25 00:54 39.21978 -106.86587 7805 ft 2 kts 105°
2026-04-25 00:54 39.21987 -106.86603 7804 ft 2 kts 146°
2026-04-25 00:55 39.21994 -106.86607 7804 ft 0 kts 160°
2026-04-25 00:56 39.21992 -106.86606 7804 ft 2 kts 161°
2026-04-25 00:56 39.21955 -106.86589 7807 ft 7 kts 160°
2026-04-25 00:57 39.21863 -106.86545 7814 ft 14 kts 160°
2026-04-25 00:57 39.21789 -106.86510 7821 ft 6 kts 160°
2026-04-25 00:57 39.21756 -106.86494 7824 ft 7 kts 159°
2026-04-25 00:57 39.21675 -106.86457 7830 ft 9 kts 160°
2026-04-25 00:58 39.21608 -106.86424 7834 ft 10 kts 159°
2026-04-25 00:58 39.21526 -106.86389 7839 ft 10 kts 172°
2026-04-25 00:58 39.21475 -106.86432 7845 ft 7 kts 257°
2026-04-25 00:58 39.21510 -106.86498 7845 ft 11 kts 339°
2026-04-25 00:59 39.21537 -106.86514 7843 ft 0 kts 340°
2026-04-25 00:59 39.21564 -106.86527 7841 ft 24 kts 338°
2026-04-25 00:59 39.22020 -106.86746 7802 ft 100 kts 340°
2026-04-25 00:59 39.22950 -106.87176 7729 ft 155 kts 341°
2026-04-25 01:00 39.24099 -106.87711 7877 ft 176 kts 338°
2026-04-25 01:00 39.25351 -106.88323 8179 ft 199 kts 336°
2026-04-25 01:00 39.26848 -106.89080 8216 ft 239 kts 337°
2026-04-25 01:00 39.28332 -106.89636 9409 ft 215 kts 351°
2026-04-25 01:01 39.29881 -106.90348 9494 ft 244 kts 319°
2026-04-25 01:01 39.30940 -106.92538 9674 ft 272 kts 284°
2026-04-25 01:01 39.31411 -106.95107 10335 ft 279 kts 282°
2026-04-25 01:01 39.31923 -106.97768 11368 ft 273 kts 282°
2026-04-25 01:02 39.32422 -107.00428 12307 ft 272 kts 282°
2026-04-25 01:02 39.32932 -107.03083 13259 ft 271 kts 281°
2026-04-25 01:02 39.33580 -107.05684 14201 ft 275 kts 294°
2026-04-25 01:02 39.34722 -107.07836 14950 ft 283 kts 306°
2026-04-25 01:03 39.35960 -107.10068 15674 ft 287 kts 300°
2026-04-25 01:03 39.37185 -107.12484 16535 ft 288 kts 297°
2026-04-25 01:03 39.38077 -107.15043 17373 ft 287 kts 286°
2026-04-25 01:03 39.38589 -107.17795 18156 ft 288 kts 277°
2026-04-25 01:04 39.38708 -107.20591 18953 ft 289 kts 267°
2026-04-25 01:04 39.38414 -107.23274 19790 ft 288 kts 257°
2026-04-25 01:04 39.37681 -107.26009 20569 ft 292 kts 247°
2026-04-25 01:04 39.36606 -107.28561 21345 ft 295 kts 246°
2026-04-25 01:05 39.35882 -107.31345 22099 ft 296 kts 258°
2026-04-25 01:05 39.35315 -107.34190 22843 ft 299 kts 257°
2026-04-25 01:05 39.34753 -107.37066 23578 ft 301 kts 258°
2026-04-25 01:05 39.34198 -107.39897 24272 ft 303 kts 258°
2026-04-25 01:06 39.33633 -107.42776 24990 ft 305 kts 258°
2026-04-25 01:06 39.33073 -107.45641 25624 ft 306 kts 258°
2026-04-25 01:06 39.32508 -107.48530 26257 ft 307 kts 258°
2026-04-25 01:06 39.31965 -107.51423 26848 ft 309 kts 261°
2026-04-25 01:07 39.31844 -107.54224 27489 ft 308 kts 274°
2026-04-25 01:07 39.32262 -107.56938 28169 ft 308 kts 286°
2026-04-25 01:07 39.33276 -107.59618 28899 ft 311 kts 299°
2026-04-25 01:07 39.34810 -107.61958 29496 ft 317 kts 308°
2026-04-25 01:08 39.36434 -107.64060 30061 ft 319 kts 312°
2026-04-25 01:08 39.38383 -107.65784 30716 ft 327 kts 324°
2026-04-25 01:08 39.40715 -107.66981 31351 ft 334 kts 332°
2026-04-25 01:08 39.43117 -107.68012 31937 ft 334 kts 333°
2026-04-25 01:09 39.45430 -107.68959 32575 ft 331 kts 333°
2026-04-25 01:09 39.47753 -107.69896 33138 ft 328 kts 334°
2026-04-25 01:09 39.50003 -107.70827 33596 ft 325 kts 330°
2026-04-25 01:09 39.52076 -107.72068 34010 ft 317 kts 321°
2026-04-25 01:10 39.53902 -107.73670 34458 ft 308 kts 313°
2026-04-25 01:10 39.55420 -107.75539 34838 ft 298 kts 304°
2026-04-25 01:10 39.56651 -107.77694 35201 ft 289 kts 296°
2026-04-25 01:10 39.57604 -107.79943 35520 ft 287 kts 295°
2026-04-25 01:11 39.58680 -107.82140 35739 ft 290 kts 298°
2026-04-25 01:11 39.59820 -107.84323 35934 ft 292 kts 300°
2026-04-25 01:11 39.61002 -107.86502 36162 ft 293 kts 300°
2026-04-25 01:11 39.62184 -107.88668 36473 ft 293 kts 300°
2026-04-25 01:12 39.63410 -107.90884 36816 ft 293 kts 300°
2026-04-25 01:12 39.64636 -107.93108 37057 ft 296 kts 300°
2026-04-25 01:12 39.65868 -107.95341 37274 ft 299 kts 300°
2026-04-25 01:12 39.67096 -107.97557 37435 ft 304 kts 301°
2026-04-25 01:13 39.68338 -107.99799 37777 ft 303 kts 301°
2026-04-25 01:13 39.69574 -108.02032 38078 ft 302 kts 301°
2026-04-25 01:13 39.70817 -108.04279 38314 ft 304 kts 301°
2026-04-25 01:13 39.72046 -108.06510 38499 ft 307 kts 301°
2026-04-25 01:14 39.73294 -108.08773 38720 ft 308 kts 301°
2026-04-25 01:14 39.74580 -108.11106 38975 ft 309 kts 301°
2026-04-25 01:14 39.75853 -108.13408 39154 ft 311 kts 301°
2026-04-25 01:14 39.77139 -108.15746 39287 ft 313 kts 301°
2026-04-25 01:15 39.78414 -108.18072 39462 ft 315 kts 301°
2026-04-25 01:15 39.79715 -108.20435 39635 ft 316 kts 301°
2026-04-25 01:15 39.81044 -108.22852 39753 ft 319 kts 301°
2026-04-25 01:15 39.82347 -108.25230 39908 ft 320 kts 302°
2026-04-25 01:16 39.83657 -108.27612 40062 ft 322 kts 301°
2026-04-25 01:16 39.85008 -108.30085 40177 ft 324 kts 301°
2026-04-25 01:16 39.86342 -108.32513 40320 ft 326 kts 302°
2026-04-25 01:16 39.87684 -108.34969 40427 ft 328 kts 302°
2026-04-25 01:17 39.89044 -108.37452 40555 ft 330 kts 302°
2026-04-25 01:17 39.89967 -108.39139 40657 ft 330 kts 302°
2026-04-25 01:17 39.91787 -108.42474 40828 ft 332 kts 302°
2026-04-25 01:18 39.94520 -108.47487 41007 ft 337 kts 302°
2026-04-25 01:18 39.95881 -108.49991 41138 ft 337 kts 302°
2026-04-25 01:18 39.97264 -108.52528 41260 ft 338 kts 302°
2026-04-25 01:18 39.98665 -108.55100 41387 ft 339 kts 302°
2026-04-25 01:19 40.00080 -108.57708 41480 ft 341 kts 302°
2026-04-25 01:19 40.02948 -108.62988 41652 ft 344 kts 302°
2026-04-25 01:19 40.04377 -108.65630 41753 ft 346 kts 302°
2026-04-25 01:20 40.05874 -108.68389 41890 ft 346 kts 302°
2026-04-25 01:20 40.07378 -108.71173 42000 ft 348 kts 302°
2026-04-25 01:20 40.08847 -108.73885 42100 ft 349 kts 302°
2026-04-25 01:21 40.11872 -108.79489 42300 ft 352 kts 302°
2026-04-25 01:21 40.13383 -108.82295 42426 ft 352 kts 302°
2026-04-25 01:21 40.14861 -108.85033 42490 ft 355 kts 302°
2026-04-25 01:21 40.16393 -108.87887 42602 ft 356 kts 302°
2026-04-25 01:22 40.17878 -108.90643 42716 ft 356 kts 302°
2026-04-25 01:22 40.19360 -108.93403 42848 ft 356 kts 302°
2026-04-25 01:22 40.20805 -108.96093 42876 ft 359 kts 302°
2026-04-25 01:23 40.23866 -109.01797 42885 ft 366 kts 302°
2026-04-25 01:23 40.26968 -109.07602 42887 ft 373 kts 302°
2026-04-25 01:24 40.30202 -109.13658 42889 ft 378 kts 302°
2026-04-25 01:24 40.33375 -109.19610 42883 ft 378 kts 302°
2026-04-25 01:25 40.36436 -109.25362 42875 ft 374 kts 302°
2026-04-25 01:25 40.39445 -109.31023 42865 ft 372 kts 302°
2026-04-25 01:26 40.42449 -109.36693 42859 ft 374 kts 302°
2026-04-25 01:26 40.45506 -109.42468 42852 ft 378 kts 302°
2026-04-25 01:27 40.48607 -109.48340 42846 ft 380 kts 302°
2026-04-25 01:27 40.51439 -109.53709 42855 ft 378 kts 303°
2026-04-25 01:28 40.55653 -109.61716 42876 ft 374 kts 302°
2026-04-25 01:28 40.58682 -109.67487 42905 ft 375 kts 302°
2026-04-25 01:29 40.61665 -109.73180 42920 ft 378 kts 302°
2026-04-25 01:29 40.64643 -109.78877 42919 ft 380 kts 302°
2026-04-25 01:30 40.67641 -109.84617 42911 ft 377 kts 302°
2026-04-25 01:30 40.70582 -109.90254 42917 ft 372 kts 302°
2026-04-25 01:31 40.73473 -109.95820 42915 ft 370 kts 302°
2026-04-25 01:31 40.76393 -110.01443 42909 ft 375 kts 302°
2026-04-25 01:32 40.79355 -110.07155 42901 ft 379 kts 302°
2026-04-25 01:32 40.82319 -110.12886 42900 ft 380 kts 302°
2026-04-25 01:33 40.85283 -110.18627 42901 ft 376 kts 302°
2026-04-25 01:33 40.88217 -110.24315 42887 ft 372 kts 302°
2026-04-25 01:34 40.91117 -110.29946 42904 ft 374 kts 302°
2026-04-25 01:34 40.94050 -110.35661 42899 ft 379 kts 302°
2026-04-25 01:35 40.97015 -110.41449 42902 ft 383 kts 302°
2026-04-25 01:35 41.00005 -110.47292 42899 ft 383 kts 302°
2026-04-25 01:36 41.02958 -110.53074 42904 ft 378 kts 302°
2026-04-25 01:36 41.05873 -110.58792 42875 ft 375 kts 302°
2026-04-25 01:37 41.08792 -110.64527 42888 ft 378 kts 302°
2026-04-25 01:37 41.11749 -110.70354 42912 ft 383 kts 302°
2026-04-25 01:38 41.14728 -110.76231 42903 ft 386 kts 302°
2026-04-25 01:38 41.17727 -110.82158 42905 ft 386 kts 302°
2026-04-25 01:39 41.20681 -110.88010 42920 ft 383 kts 302°
2026-04-25 01:39 41.23599 -110.93881 42895 ft 380 kts 299°
2026-04-25 01:40 41.26218 -111.00021 42927 ft 381 kts 298°
2026-04-25 01:40 41.28841 -111.06168 42932 ft 386 kts 298°
2026-04-25 01:41 41.31484 -111.12383 42940 ft 388 kts 298°
2026-04-25 01:41 41.34135 -111.18619 42901 ft 386 kts 298°
2026-04-25 01:42 41.36745 -111.24783 42895 ft 381 kts 298°
2026-04-25 01:42 41.39371 -111.30991 42889 ft 378 kts 298°
2026-04-25 01:43 41.41974 -111.37155 42875 ft 380 kts 298°
2026-04-25 01:43 41.44588 -111.43374 42873 ft 385 kts 298°
2026-04-25 01:44 41.47218 -111.49633 42866 ft 388 kts 298°
2026-04-25 01:44 41.49828 -111.55856 42866 ft 385 kts 298°
2026-04-25 01:45 41.52428 -111.62070 42873 ft 380 kts 298°
2026-04-25 01:45 41.54985 -111.68189 42892 ft 377 kts 298°
2026-04-25 01:46 41.57581 -111.74419 42901 ft 382 kts 298°
2026-04-25 01:46 41.60189 -111.80692 42911 ft 386 kts 297°
2026-04-25 01:47 41.62807 -111.87006 42910 ft 387 kts 298°
2026-04-25 01:47 41.65403 -111.93272 42906 ft 384 kts 297°
2026-04-25 01:48 41.67977 -111.99503 42903 ft 381 kts 298°
2026-04-25 01:48 41.70528 -112.05690 42903 ft 381 kts 298°
2026-04-25 01:49 41.73092 -112.11916 42901 ft 385 kts 298°
2026-04-25 01:49 41.75688 -112.18240 42891 ft 389 kts 298°
2026-04-25 01:50 41.78298 -112.24611 42893 ft 388 kts 297°
2026-04-25 01:50 41.80886 -112.30946 42883 ft 385 kts 298°
2026-04-25 01:51 41.83448 -112.37224 42894 ft 383 kts 298°
2026-04-25 01:51 41.86021 -112.43551 42895 ft 386 kts 298°
2026-04-25 01:52 41.88602 -112.49897 42901 ft 390 kts 298°
2026-04-25 01:52 41.91232 -112.56395 42876 ft 392 kts 298°
2026-04-25 01:53 41.93871 -112.62921 42885 ft 391 kts 298°
2026-04-25 01:53 41.96588 -112.69647 42897 ft 389 kts 297°
2026-04-25 01:54 41.99286 -112.76346 42894 ft 388 kts 298°
2026-04-25 01:54 42.01989 -112.83083 42904 ft 390 kts 297°
2026-04-25 01:55 42.04729 -112.89915 42908 ft 394 kts 298°
2026-04-25 01:55 42.07459 -112.96746 42900 ft 394 kts 298°
2026-04-25 01:56 42.10116 -113.03406 42890 ft 392 kts 297°
2026-04-25 01:56 42.12809 -113.10174 42899 ft 391 kts 297°
2026-04-25 01:57 42.16801 -113.20231 42909 ft 393 kts 297°
2026-04-25 01:58 42.19477 -113.27000 42918 ft 394 kts 298°
2026-04-25 01:58 42.22139 -113.33744 42910 ft 393 kts 298°
2026-04-25 01:59 42.24770 -113.40425 42903 ft 391 kts 297°
2026-04-25 01:59 42.27367 -113.47041 42901 ft 389 kts 298°
2026-04-25 02:00 42.29941 -113.53605 42900 ft 390 kts 298°
2026-04-25 02:00 42.32503 -113.60155 42910 ft 392 kts 298°
2026-04-25 02:01 42.35057 -113.66702 42926 ft 394 kts 297°
2026-04-25 02:01 42.37669 -113.73409 42936 ft 393 kts 297°
2026-04-25 02:02 42.40202 -113.79927 42928 ft 388 kts 297°
2026-04-25 02:02 42.42704 -113.86379 42932 ft 386 kts 297°
2026-04-25 02:03 42.45195 -113.92824 42927 ft 388 kts 297°
2026-04-25 02:03 42.47692 -113.99298 42943 ft 393 kts 297°
2026-04-25 02:04 42.50222 -114.05870 42934 ft 395 kts 297°
2026-04-25 02:04 42.52736 -114.12416 42924 ft 392 kts 297°
2026-04-25 02:05 42.55242 -114.18959 42927 ft 388 kts 297°
2026-04-25 02:05 42.57703 -114.25391 42928 ft 388 kts 297°
2026-04-25 02:06 42.60186 -114.31902 42940 ft 392 kts 297°
2026-04-25 02:06 42.62689 -114.38487 42948 ft 395 kts 297°
2026-04-25 02:07 42.65214 -114.45130 42944 ft 396 kts 297°
2026-04-25 02:07 42.67724 -114.51757 42941 ft 392 kts 297°
2026-04-25 02:08 42.70408 -114.58862 42940 ft 389 kts 298°
2026-04-25 02:08 42.73067 -114.65913 42934 ft 389 kts 297°
2026-04-25 02:09 42.75808 -114.73202 42939 ft 394 kts 297°
2026-04-25 02:09 42.78556 -114.80528 42934 ft 398 kts 297°
2026-04-25 02:10 42.81329 -114.87943 42932 ft 397 kts 297°
2026-04-25 02:10 42.84079 -114.95317 42932 ft 393 kts 297°
2026-04-25 02:11 42.86799 -115.02623 42906 ft 391 kts 297°
2026-04-25 02:11 42.89508 -115.09920 42920 ft 392 kts 297°
2026-04-25 02:12 42.92255 -115.17282 42927 ft 396 kts 298°
2026-04-25 02:12 42.95151 -115.24526 42928 ft 398 kts 299°
2026-04-25 02:13 42.98044 -115.31843 42932 ft 397 kts 299°
2026-04-25 02:13 43.00886 -115.39047 42929 ft 394 kts 299°
2026-04-25 02:14 43.03721 -115.46253 42939 ft 393 kts 299°
2026-04-25 02:14 43.06564 -115.53503 42937 ft 396 kts 299°
2026-04-25 02:15 43.09454 -115.60888 42940 ft 398 kts 299°
2026-04-25 02:15 43.12307 -115.68195 42954 ft 397 kts 298°
2026-04-25 02:16 43.15163 -115.75532 42960 ft 395 kts 298°
2026-04-25 02:16 43.18033 -115.82926 42961 ft 393 kts 298°
2026-04-25 02:17 43.20798 -115.90064 42960 ft 395 kts 298°
2026-04-25 02:17 43.23606 -115.97330 42958 ft 397 kts 298°
2026-04-25 02:18 43.26409 -116.04606 42954 ft 398 kts 298°
2026-04-25 02:18 43.29219 -116.11916 42936 ft 395 kts 298°
2026-04-25 02:19 43.32014 -116.19206 42942 ft 392 kts 298°
2026-04-25 02:19 43.34758 -116.26382 42949 ft 392 kts 298°
2026-04-25 02:20 43.37525 -116.33634 42957 ft 396 kts 298°
2026-04-25 02:20 43.40187 -116.40636 42961 ft 400 kts 298°
2026-04-25 02:21 43.42758 -116.47406 42963 ft 397 kts 298°
2026-04-25 02:21 43.45310 -116.54149 42971 ft 391 kts 298°
2026-04-25 02:22 43.47917 -116.61049 42970 ft 389 kts 298°
2026-04-25 02:22 43.50473 -116.67831 42981 ft 393 kts 298°
2026-04-25 02:23 43.53014 -116.74597 42972 ft 399 kts 298°
2026-04-25 02:23 43.55559 -116.81382 42967 ft 400 kts 298°
2026-04-25 02:24 43.58089 -116.88146 42960 ft 396 kts 298°
2026-04-25 02:24 43.60591 -116.94851 42950 ft 390 kts 298°
2026-04-25 02:25 43.63059 -117.01478 42941 ft 389 kts 298°
2026-04-25 02:25 43.65540 -117.08159 42947 ft 393 kts 298°
2026-04-25 02:26 43.68037 -117.14902 42947 ft 398 kts 298°
2026-04-25 02:26 43.70546 -117.21693 42944 ft 398 kts 298°
2026-04-25 02:27 43.73048 -117.28473 42944 ft 393 kts 298°
2026-04-25 02:27 43.75505 -117.35156 42936 ft 390 kts 298°
2026-04-25 02:28 43.77949 -117.41814 42941 ft 392 kts 298°
2026-04-25 02:28 43.80425 -117.48580 42942 ft 397 kts 298°
2026-04-25 02:29 43.82917 -117.55409 42938 ft 399 kts 298°
2026-04-25 02:29 43.85411 -117.62255 42938 ft 396 kts 298°
2026-04-25 02:30 43.87867 -117.69018 42938 ft 391 kts 298°
2026-04-25 02:30 43.90294 -117.75710 42944 ft 390 kts 298°
2026-04-25 02:31 43.92728 -117.82440 42936 ft 395 kts 297°
2026-04-25 02:31 43.95213 -117.89326 42927 ft 400 kts 297°
2026-04-25 02:32 43.97678 -117.96187 42927 ft 398 kts 298°
2026-04-25 02:32 44.00131 -118.03014 42919 ft 393 kts 297°
2026-04-25 02:33 44.02546 -118.09763 42937 ft 389 kts 298°
2026-04-25 02:33 44.04932 -118.16444 42944 ft 391 kts 298°
2026-04-25 02:34 44.07375 -118.23299 42961 ft 397 kts 298°
2026-04-25 02:34 44.09821 -118.30180 42945 ft 400 kts 297°
2026-04-25 02:35 44.12286 -118.37139 42950 ft 397 kts 298°
2026-04-25 02:35 44.14929 -118.44613 42935 ft 393 kts 298°
2026-04-25 02:36 44.17361 -118.51514 42937 ft 393 kts 298°
2026-04-25 02:36 44.19786 -118.58403 42921 ft 397 kts 298°
2026-04-25 02:37 44.22205 -118.65301 42935 ft 401 kts 297°
2026-04-25 02:37 44.24712 -118.72468 42948 ft 402 kts 297°
2026-04-25 02:38 44.27198 -118.79596 42963 ft 397 kts 297°
2026-04-25 02:38 44.29628 -118.86577 42976 ft 392 kts 297°
2026-04-25 02:39 44.32075 -118.93623 42995 ft 392 kts 297°
2026-04-25 02:39 44.34569 -119.00822 43005 ft 398 kts 297°
2026-04-25 02:40 44.37260 -119.08045 43039 ft 403 kts 306°
2026-04-25 02:40 44.40883 -119.14182 43036 ft 403 kts 318°
2026-04-25 02:41 44.44738 -119.20097 42971 ft 399 kts 310°
2026-04-25 02:41 44.48151 -119.26135 42979 ft 394 kts 309°
2026-04-25 02:42 44.51508 -119.32160 42976 ft 394 kts 309°
2026-04-25 02:42 44.54926 -119.38315 42993 ft 399 kts 309°
2026-04-25 02:43 44.58441 -119.44666 42999 ft 404 kts 309°
2026-04-25 02:43 44.61870 -119.50870 42995 ft 403 kts 309°
2026-04-25 02:44 44.65288 -119.57069 42993 ft 399 kts 309°
2026-04-25 02:44 44.68808 -119.63469 42988 ft 394 kts 309°
2026-04-25 02:45 44.72335 -119.69894 42988 ft 395 kts 309°
2026-04-25 02:45 44.75765 -119.76154 42989 ft 401 kts 309°
2026-04-25 02:46 44.79243 -119.82519 42991 ft 405 kts 309°
2026-04-25 02:46 44.82669 -119.88805 42993 ft 403 kts 309°
2026-04-25 02:47 44.86068 -119.95050 42993 ft 397 kts 309°
2026-04-25 02:47 44.89418 -120.01222 42989 ft 395 kts 309°
2026-04-25 02:48 44.92783 -120.07431 42998 ft 398 kts 309°
2026-04-25 02:48 44.96271 -120.13883 42994 ft 394 kts 309°
2026-04-25 02:48 44.98016 -120.17115 42826 ft 385 kts 309°
2026-04-25 02:49 44.99756 -120.20342 42333 ft 382 kts 309°
2026-04-25 02:49 45.01460 -120.23506 41721 ft 382 kts 309°
2026-04-25 02:49 45.03202 -120.26736 40433 ft 399 kts 309°
2026-04-25 02:49 45.04939 -120.29971 39117 ft 412 kts 309°
2026-04-25 02:50 45.06666 -120.33200 38279 ft 410 kts 309°
2026-04-25 02:50 45.08354 -120.36354 37628 ft 405 kts 309°
2026-04-25 02:50 45.10070 -120.39561 36836 ft 402 kts 309°
2026-04-25 02:50 45.11774 -120.42748 36154 ft 394 kts 309°
2026-04-25 02:51 45.13459 -120.45899 35539 ft 385 kts 309°
2026-04-25 02:51 45.15056 -120.48888 34879 ft 378 kts 309°
2026-04-25 02:51 45.16710 -120.52062 34152 ft 372 kts 307°
2026-04-25 02:51 45.18090 -120.55387 33052 ft 384 kts 301°
2026-04-25 02:52 45.19516 -120.59172 31284 ft 397 kts 301°
2026-04-25 02:52 45.20886 -120.62763 30574 ft 379 kts 301°
2026-04-25 02:52 45.22244 -120.66302 29422 ft 373 kts 301°
2026-04-25 02:52 45.23579 -120.69776 28054 ft 372 kts 301°
2026-04-25 02:53 45.24962 -120.73364 26647 ft 370 kts 301°
2026-04-25 02:53 45.26288 -120.76817 25288 ft 367 kts 301°
2026-04-25 02:53 45.27612 -120.80270 23903 ft 365 kts 301°
2026-04-25 02:53 45.28934 -120.83716 22526 ft 362 kts 302°
2026-04-25 02:54 45.30256 -120.87164 21150 ft 359 kts 302°
2026-04-25 02:54 45.31563 -120.90585 20213 ft 344 kts 302°
2026-04-25 02:54 45.32828 -120.93903 19183 ft 336 kts 302°
2026-04-25 02:54 45.34071 -120.97150 17897 ft 336 kts 302°
2026-04-25 02:55 45.35223 -121.00179 17953 ft 307 kts 302°
2026-04-25 02:55 45.36427 -121.03325 18009 ft 332 kts 303°
2026-04-25 02:55 45.37648 -121.06526 18001 ft 329 kts 302°
2026-04-25 02:55 45.38792 -121.09851 17664 ft 336 kts 296°
2026-04-25 02:56 45.39625 -121.13501 17360 ft 340 kts 292°
2026-04-25 02:56 45.40456 -121.17170 17132 ft 340 kts 293°
2026-04-25 02:56 45.41297 -121.20821 16633 ft 341 kts 293°
2026-04-25 02:56 45.42117 -121.24367 16054 ft 332 kts 293°
2026-04-25 02:57 45.42932 -121.27869 15464 ft 323 kts 293°
2026-04-25 02:57 45.43716 -121.31242 14898 ft 317 kts 293°
2026-04-25 02:57 45.44478 -121.34521 14364 ft 310 kts 294°
2026-04-25 02:57 45.45223 -121.37736 13793 ft 306 kts 294°
2026-04-25 02:58 45.45962 -121.40927 13242 ft 302 kts 294°
2026-04-25 02:58 45.46683 -121.44038 12689 ft 299 kts 294°
2026-04-25 02:58 45.47413 -121.47195 12118 ft 295 kts 293°
2026-04-25 02:58 45.48117 -121.50241 11543 ft 286 kts 293°
2026-04-25 02:59 45.48799 -121.53205 10967 ft 281 kts 292°
2026-04-25 02:59 45.49464 -121.56098 10401 ft 278 kts 292°
2026-04-25 02:59 45.50148 -121.59073 9820 ft 279 kts 292°
2026-04-25 02:59 45.50808 -121.61952 9249 ft 277 kts 291°
2026-04-25 03:00 45.51454 -121.64777 8905 ft 274 kts 291°
2026-04-25 03:00 45.52065 -121.67465 8970 ft 268 kts 291°
2026-04-25 03:00 45.52695 -121.70222 8990 ft 271 kts 291°
2026-04-25 03:00 45.53146 -121.73146 8970 ft 272 kts 279°
2026-04-25 03:01 45.53236 -121.76083 8983 ft 271 kts 275°
2026-04-25 03:01 45.53327 -121.79012 8986 ft 269 kts 276°
2026-04-25 03:01 45.53433 -121.81944 8985 ft 267 kts 276°
2026-04-25 03:01 45.53546 -121.84812 8986 ft 264 kts 276°
2026-04-25 03:02 45.53659 -121.87678 8991 ft 262 kts 276°
2026-04-25 03:02 45.53772 -121.90511 8991 ft 261 kts 276°
2026-04-25 03:02 45.53879 -121.93375 8993 ft 259 kts 276°
2026-04-25 03:02 45.53986 -121.96246 8995 ft 258 kts 277°
2026-04-25 03:03 45.54108 -121.99181 8577 ft 274 kts 276°
2026-04-25 03:03 45.54235 -122.02344 8107 ft 286 kts 275°
2026-04-25 03:03 45.54381 -122.05467 7988 ft 273 kts 276°
2026-04-25 03:03 45.54340 -122.08529 7216 ft 275 kts 264°
2026-04-25 03:04 45.53950 -122.11563 6307 ft 281 kts 261°
2026-04-25 03:04 45.53601 -122.14647 5925 ft 263 kts 262°
2026-04-25 03:04 45.53301 -122.17486 5984 ft 278 kts 263°
2026-04-25 03:05 45.52650 -122.23718 5986 ft 269 kts 262°
2026-04-25 03:05 45.52348 -122.26588 5995 ft 273 kts 262°
2026-04-25 03:05 45.52039 -122.29533 6004 ft 270 kts 263°
2026-04-25 03:05 45.51739 -122.32405 5847 ft 265 kts 262°
2026-04-25 03:06 45.51452 -122.35157 5515 ft 258 kts 265°
2026-04-25 03:06 45.51545 -122.37955 5203 ft 248 kts 285°
2026-04-25 03:06 45.52164 -122.40585 4363 ft 260 kts 297°
2026-04-25 03:06 45.53095 -122.43181 3398 ft 271 kts 302°
2026-04-25 03:07 45.54109 -122.45816 2458 ft 276 kts 304°
2026-04-25 03:07 45.55109 -122.48372 1491 ft 257 kts 304°
2026-04-25 03:07 45.56030 -122.50712 1016 ft 242 kts 303°
2026-04-25 03:07 45.56904 -122.52962 665 ft 232 kts 303°